Location: Libas
(9.8833°N, 125.9833°E)
Time: 21:08:25
(UTC+00:00)

USA 267 - Pass Details

Date: 27 October 2020
Orbit: 1098 x 1110 km, 122.9° (Epoch: 23 November)

Event Time Altitude Azimuth Distance (km) Brightness Sun altitude
Rises 20:53:24 0° 44° (NE) 3,922 6.6 -8.6°
Reaches altitude 10° 20:55:56 10° 49° (NE) 2,965 6.1 -8.0°
Maximum altitude 21:02:21 56° 126° (SE) 1,294 4.1 -6.5°
Drops below altitude 10° 21:08:44 10° 203° (SSW) 2,964 5.4 -4.9°
Sets 21:11:15 0° 207° (SSW) 3,921 6.0 -4.3°
